Regional Weather Roundup
Issued by NWS

Home | Current Version | Previous Version | Text Only | Print | Product List | Glossary Off
Versions: 1 2 3 4 5 6 7 8 9 10 11 12 13 14 15 16 17 18 19 20 21 22 23 24 25 26 27 28 29 30 31 32 33 34 35 36 37 38 39 40 41 42 43 44 45 46 47 48 49 50

000
ASUS43 KDTX 262110
RWRMI
MICHIGAN HOURLY REGIONAL WEATHER ROUNDUP
NATIONAL WEATHER SERVICE DETROIT/PONTIAC MI
500 PM EDT TUE JUL 26 2016

NOTE: "FAIR" INDICATES FEW OR NO CLOUDS BELOW 12,000 FEET WITH NO
SIGNIFICANT WEATHER AND/OR OBSTRUCTION TO VISIBILITY.

MIZ047>049-052>055-059>063-066>070-074>076-081>083-262200-
SOUTHEAST LOWER MICHIGAN

CITY           SKY/WX    TMP DP  RH WIND       PRES   REMARKS
ADRIAN         SUNNY     83  60  45 SW6       30.02F
ALMA           SUNNY     87  59  38 W3        30.01S
ANN ARBOR      SUNNY     87  56  34 VRB3      30.00F
BAD AXE        MOSUNNY   85  58  40 W10       30.00S
CARO           PTSUNNY   88  61  40 W8G16     29.98F
DETROIT CITY   SUNNY     82  63  52 S7        30.00F
DETROIT        PTSUNNY   86  62  44 S8        30.00F
FLINT          SUNNY     90  58  33 W10       30.00F
GROSSE ILE     SUNNY     81  68  63 S9        30.00F
HOWELL         MOSUNNY   86  56  36 NW5       30.01F

CITY           SKY/WX    TMP DP  RH WIND       PRES   REMARKS
JACKSON        SUNNY     84  59  42 NW8       30.02F
LAMBERTVILLE   SUNNY     85  58  39 E5        30.02S
LANSING        MOSUNNY   86  60  41 W7        30.01F
LAPEER         FAIR      85  55  35 CALM      30.00F
MASON          MOSUNNY   85  60  43 W6        30.01F
MONROE         SUNNY     83  64  51 SW5       30.01S
PONTIAC        MOSUNNY   86  58  38 NW7       30.00F
PORT HURON     MOSUNNY   82  63  51 CALM      30.00S
TRI CITIES     PTSUNNY   87  60  40 W8        29.99F
MIDLAND        FAIR      87  58  37 SW7       29.98F
TROY           PTSUNNY   88  53  29 NW3       30.01F
SAGINAW HB     MOSUNNY   88  55  33 W14       29.99S
$$
MIZ043>046-050>051-056>058-064>065-071>073-077>080-262200-
SOUTHWEST LOWER MICHIGAN

CITY           SKY/WX    TMP DP  RH WIND       PRES   REMARKS
BATTLE CREEK   MOSUNNY   82  62  50 VRB5      30.03F
BENTON HARBOR  SUNNY     82  63  52 VRB7      30.03F
BIG RAPIDS     SUNNY     85  58  39 NW6       30.01F
COLDWATER      SUNNY     85  56  37 W5        30.03S
FREMONT        FAIR      85  61  44 W10       30.01F
HOLLAND        SUNNY     82  67  60 W10       30.03F
GRAND RAPIDS   PTSUNNY   85  62  46 W9        30.01F
IONIA          FAIR      86  58  38 SW5       30.00F
KALAMAZOO      MOSUNNY   83  59  44 VRB3      30.02F
LUDINGTON      SUNNY     80  63  55 SW9       30.02S
MARSHALL       MOSUNNY   85  59  41 CALM      30.02F
MOUNT PLEASANT SUNNY     87  57  36 NW8       29.99F
MUSKEGON       MOSUNNY   82  63  52 W9        30.03F
SOUTH HAVEN    SUNNY     82  65  56 W7        30.03F
$$
MIZ016>042-262200-
NORTHERN LOWER MICHIGAN

CITY           SKY/WX    TMP DP  RH WIND       PRES   REMARKS
ALPENA         SUNNY     86  56  35 E10       29.96F
BEAVER ISLAND  SUNNY     80  66  62 SW16G22   29.97F
BELLAIRE       SUNNY     85  58  39 NW6       29.98F
CADILLAC       SUNNY     86  59  40 W9        30.02S
CHARLEVOIX     SUNNY     83  61  46 SW12      30.01F
FRANKFORT      SUNNY     82  61  49 W9        30.01S
GAYLORD        SUNNY     85  54  34 W10G17    30.01S
GRAYLING       MOSUNNY   88  57  35 SW7       30.00F
HARBOR SPRINGS SUNNY     81  64  55 W8G17     29.98S
HOUGHTON LAKE  SUNNY     85  59  41 SW9       30.01F
MANISTEE       SUNNY     85  59  41 W10       30.00F
OSCODA         MOSUNNY   85  61  43 SE15      29.96F
PELLSTON       SUNNY     84  59  42 SW13      29.98S
ROGERS CITY    SUNNY     80  62  54 N5        29.97F
TRAVERSE CITY  MOSUNNY   88  56  33 W12       29.97S
$$
MIZ007>008-015-262200-
EASTERN UPPER MICHIGAN

CITY           SKY/WX    TMP DP  RH WIND       PRES   REMARKS
KINROSS        SUNNY     83  63  50 SW9G20    29.95S
MACKINAC ISLAN SUNNY     78  64  61 SW10G21   29.97S
NEWBERRY       PTSUNNY   82  63  51 SW13G18   29.94S
S. S. MARIE    SUNNY     86  63  45 W9        29.92F
MUNISING         N/A     77  69  76 N6        29.90F
$$
MIZ004>006-011>014-085-262200-
CENTRAL UPPER MICHIGAN

CITY           SKY/WX    TMP DP  RH WIND       PRES   REMARKS
MANISTIQUE     SUNNY     74  68  81 S10G18    29.95S
ESCANABA       MOSUNNY   82  68  61 S18G25    29.92F
MENOMINEE      SUNNY    N/A N/A N/A W8G16     29.96F
SAWYER-GWINN   MOSUNNY   88  59  37 W15G21    29.93F
$$
MIZ001>003-009>011-084-262200-
WESTERN UPPER MICHIGAN

CITY           SKY/WX    TMP DP  RH WIND       PRES   REMARKS
IRON MOUNTAIN  SUNNY     91  59  33 W9G20     29.94F HX  90
HOUGHTON       SUNNY     79  65  62 NW17      29.92S
COPPER HARBOR    N/A     71  65  81 N6        29.91S
IRONWOOD       MOSUNNY  N/A N/A N/A W12G17    29.91F
$$

ABBREVIATIONS USED IN REMARKS
   TC - TEMPERATURE IN CELSIUS
  WCI - WIND CHILL INDEX
   HX - HEAT INDEX
  VSB - VISIBILITY





USA.gov is the U.S. government's official web portal to all federal, state and local government web resources and services.